Simultaneous Nadir Overpasses (SNOs) Predictions

Prediction of SNOs over PacNW region [( 10.00, 139.50) to ( 22.70, 165.60)] between AQUA and NPP Satellites:

Table of predicted SNOs over PacNW region for the next 30.0 days since TLE Epoch: 12/30/2016
Index Date (AQUA) Time (AQUA) AQUA Lat,Lon Date (NPP) Time (NPP) NPP Lat,Lon Distance(km) Time Diff (sec)
1 12/31/2016 15:09:36 22.58, 159.84 12/31/2016 15:11:35 23.16, 157.12 286.29 119
2 01/03/2017 03:31:26 22.67, 147.52 01/03/2017 03:27:57 23.15, 145.55 209.30 209
3 01/08/2017 15:59:02 22.61, 147.50 01/08/2017 16:02:15 23.26, 144.46 319.25 193
4 01/16/2017 15:09:35 22.63, 159.88 01/16/2017 15:11:28 23.24, 157.15 287.55 113
5 01/19/2017 03:31:24 22.68, 147.55 01/19/2017 03:27:54 23.37, 145.50 223.44 210
6 01/24/2017 15:58:59 22.64, 147.54 01/24/2017 16:02:08 23.31, 144.49 321.30 189




NCC Satellite Simultaneous Nadir Overpasses (SNOs) Prediction Service
